When you browse on this site, cookies collect data to enhance your experience and personalize the content and advertising you see.
Visit our Privacy Policy to learn more. By continuing to use the site, you agree to this use of cookies and data.
  • In France
  • List of Countries
  • For 7 days
  • Water Temperature
  • Weather Map
  • Weather Widgets
  • user-avatar
    Login

    Hourly Weather Middlesbrough

    Today, 19 September, Thursday

    Time Temperature Precipitation Wind Pressure Humidity
    00:00 +12°C° 0 mm 2 mps 771 mmHg 89%
    01:00 +12°C° 0 mm 2 mps 771 mmHg 89%
    02:00 +12°C° 0 mm 2 mps 771 mmHg 89%
    03:00 +12°C° 0 mm 2 mps 770 mmHg 89%
    04:00 +12°C° 0 mm 2 mps 771 mmHg 89%
    05:00 +10°C° 0 mm 2 mps 771 mmHg 89%
    06:00 +10°C° 0 mm 2 mps 771 mmHg 90%
    07:00 +13°C° 0 mm 2 mps 771 mmHg 84%
    08:00 +15°C° 0 mm 2 mps 771 mmHg 78%
    09:00 +16°C° 0 mm 1 mps 771 mmHg 72%
    10:00 +18°C° 0 mm 1 mps 771 mmHg 68%
    11:00 +20°C° 0 mm 1 mps 771 mmHg 64%
    12:00 +21°C° 0 mm 1 mps 772 mmHg 62%
    13:00 +21°C° 0 mm 1 mps 771 mmHg 61%
    14:00 +20°C° 0 mm 2 mps 771 mmHg 61%
    15:00 +21°C° 0 mm 2 mps 771 mmHg 60%
    16:00 +20°C° 0 mm 2 mps 771 mmHg 66%
    17:00 +18°C° 0 mm 2 mps 770 mmHg 73%
    18:00 +17°C° 0 mm 2 mps 770 mmHg 79%
    19:00 +16°C° 0 mm 2 mps 770 mmHg 82%
    20:00 +16°C° 0 mm 1 mps 770 mmHg 86%
    21:00 +15°C° 0 mm 1 mps 770 mmHg 89%
    22:00 +15°C° 0 mm 1 mps 770 mmHg 90%
    23:00 +14°C° 0 mm 1 mps 770 mmHg 90%

    Tomorrow, 20 September, Friday

    Time Temperature Precipitation Wind Pressure Humidity
    00:00 +14°C° 0 mm 1 mps 770 mmHg 91%
    01:00 +14°C° 0 mm 1 mps 770 mmHg 91%
    02:00 +13°C° 0 mm 2 mps 770 mmHg 91%
    03:00 +13°C° 0 mm 2 mps 769 mmHg 91%
    04:00 +13°C° 0 mm 2 mps 769 mmHg 91%
    05:00 +13°C° 0 mm 2 mps 769 mmHg 91%
    06:00 +12°C° 0 mm 2 mps 768 mmHg 91%
    07:00 +14°C° 0 mm 2 mps 768 mmHg 85%
    08:00 +16°C° 0 mm 2 mps 768 mmHg 78%
    09:00 +17°C° 0 mm 2 mps 768 mmHg 71%
    10:00 +19°C° 0 mm 2 mps 768 mmHg 68%
    11:00 +20°C° 0 mm 3 mps 768 mmHg 65%
    12:00 +21°C° 0 mm 3 mps 767 mmHg 61%
    13:00 +21°C° 0 mm 4 mps 767 mmHg 61%
    14:00 +21°C° 0 mm 4 mps 766 mmHg 61%
    15:00 +21°C° 0 mm 4 mps 766 mmHg 61%
    16:00 +20°C° 0 mm 4 mps 765 mmHg 66%
    17:00 +19°C° 0 mm 4 mps 765 mmHg 72%
    18:00 +17°C° 0 mm 4 mps 765 mmHg 78%
    19:00 +15°C° 0 mm 4 mps 764 mmHg 82%
    20:00 +14°C° 0 mm 4 mps 764 mmHg 86%
    21:00 +13°C° 0 mm 4 mps 764 mmHg 91%
    22:00 +13°C° 0 mm 4 mps 764 mmHg 91%
    23:00 +12°C° 0 mm 4 mps 764 mmHg 92%

    Day after tomorrow, 21 September, Saturday

    Time Temperature Precipitation Wind Pressure Humidity
    00:00 +12°C° 0 mm 4 mps 763 mmHg 93%
    01:00 +12°C° 0 mm 4 mps 763 mmHg 93%
    02:00 +12°C° 0 mm 4 mps 762 mmHg 94%
    03:00 +12°C° 0 mm 4 mps 762 mmHg 95%
    04:00 +11°C° 0 mm 4 mps 761 mmHg 94%
    05:00 +11°C° 0 mm 4 mps 761 mmHg 93%
    06:00 +11°C° 0 mm 4 mps 760 mmHg 93%
    07:00 +13°C° 0 mm 5 mps 760 mmHg 85%
    08:00 +15°C° 0 mm 6 mps 760 mmHg 77%
    09:00 +16°C° 0 mm 6 mps 759 mmHg 69%
    10:00 +17°C° 0 mm 7 mps 759 mmHg 64%
    11:00 +18°C° 0 mm 7 mps 759 mmHg 59%
    12:00 +21°C° 0 mm 7 mps 758 mmHg 54%
    13:00 +21°C° 0 mm 7 mps 758 mmHg 55%
    14:00 +21°C° 0 mm 7 mps 757 mmHg 55%
    15:00 +21°C° 0 mm 7 mps 756 mmHg 56%
    16:00 +18°C° 0 mm 7 mps 756 mmHg 62%
    17:00 +16°C° 0 mm 6 mps 756 mmHg 68%
    18:00 +14°C° 0 mm 5 mps 756 mmHg 75%
    19:00 +14°C° 0 mm 5 mps 756 mmHg 78%
    20:00 +13°C° 0 mm 4 mps 756 mmHg 81%
    21:00 +12°C° 0 mm 4 mps 755 mmHg 84%
    22:00 +12°C° 0 mm 3 mps 755 mmHg 84%
    23:00 +12°C° 0 mm 3 mps 754 mmHg 85%

    22 September, Sunday

    Time Temperature Precipitation Wind Pressure Humidity
    00:00 +12°C° 0 mm 3 mps 754 mmHg 86%
    01:00 +13°C° 0 mm 2 mps 754 mmHg 87%
    02:00 +13°C° 0 mm 2 mps 753 mmHg 88%
    03:00 +13°C° 0 mm 2 mps 753 mmHg 89%
    04:00 +13°C° 0 mm 2 mps 752 mmHg 89%
    05:00 +13°C° 0 mm 2 mps 752 mmHg 90%
    06:00 +13°C° 0 mm 2 mps 752 mmHg 90%
    07:00 +15°C° 0 mm 2 mps 751 mmHg 86%
    08:00 +17°C° 0 mm 2 mps 751 mmHg 82%
    09:00 +18°C° 0 mm 2 mps 751 mmHg 78%
    10:00 +19°C° 0 mm 3 mps 751 mmHg 76%
    11:00 +20°C° 0 mm 3 mps 751 mmHg 73%
    12:00 +22°C° 0 mm 3 mps 751 mmHg 70%
    13:00 +22°C° 0 mm 3 mps 751 mmHg 71%
    14:00 +22°C° 0 mm 3 mps 750 mmHg 71%
    15:00 +23°C° 0 mm 2 mps 750 mmHg 71%
    16:00 +20°C° 0.1 mm 3 mps 750 mmHg 76%
    17:00 +19°C° 0.1 mm 3 mps 750 mmHg 80%
    18:00 +18°C° 0.1 mm 3 mps 751 mmHg 85%
    19:00 +17°C° 1.1 mm 4 mps 751 mmHg 87%
    20:00 +15°C° 1.1 mm 4 mps 751 mmHg 90%
    21:00 +14°C° 1.1 mm 4 mps 752 mmHg 93%
    22:00 +14°C° 0 mm 3 mps 752 mmHg 93%
    23:00 +14°C° 0 mm 3 mps 752 mmHg 93%

    23 September, Monday

    Time Temperature Precipitation Wind Pressure Humidity
    00:00 +14°C° 0 mm 2 mps 752 mmHg 93%
    01:00 +14°C° 0 mm 2 mps 752 mmHg 93%
    02:00 +14°C° 0 mm 2 mps 753 mmHg 93%
    03:00 +13°C° 0 mm 2 mps 753 mmHg 93%
    04:00 +13°C° 0 mm 2 mps 753 mmHg 93%
    05:00 +13°C° 0 mm 2 mps 754 mmHg 93%
    06:00 +13°C° 0 mm 2 mps 754 mmHg 93%
    07:00 +14°C° 0 mm 2 mps 754 mmHg 89%
    08:00 +15°C° 0 mm 2 mps 754 mmHg 84%
    09:00 +17°C° 0 mm 3 mps 755 mmHg 79%
    10:00 +17°C° 0 mm 3 mps 755 mmHg 75%
    11:00 +18°C° 0 mm 3 mps 755 mmHg 71%
    12:00 +19°C° 0 mm 3 mps 755 mmHg 67%
    13:00 +19°C° 0 mm 3 mps 755 mmHg 65%
    14:00 +19°C° 0 mm 3 mps 755 mmHg 63%
    15:00 +19°C° 0 mm 3 mps 755 mmHg 61%
    16:00 +18°C° 0 mm 3 mps 754 mmHg 66%
    17:00 +17°C° 0 mm 3 mps 754 mmHg 70%
    18:00 +16°C° 0 mm 2 mps 754 mmHg 74%
    19:00 +16°C° 0 mm 3 mps 754 mmHg 74%
    20:00 +16°C° 0 mm 3 mps 754 mmHg 74%
    21:00 +15°C° 0 mm 4 mps 754 mmHg 75%
    22:00 +15°C° 0.1 mm 4 mps 754 mmHg 77%
    23:00 +15°C° 0.1 mm 5 mps 753 mmHg 80%

    24 September, Tuesday

    Time Temperature Precipitation Wind Pressure Humidity
    00:00 +15°C° 0.1 mm 5 mps 753 mmHg 83%
    01:00 +15°C° 0 mm 5 mps 752 mmHg 85%
    02:00 +15°C° 0 mm 5 mps 752 mmHg 86%
    03:00 +15°C° 0 mm 6 mps 751 mmHg 88%
    04:00 +15°C° 0 mm 6 mps 751 mmHg 89%
    05:00 +15°C° 0 mm 6 mps 751 mmHg 90%
    06:00 +15°C° 0 mm 5 mps 750 mmHg 91%
    07:00 +15°C° 0 mm 6 mps 750 mmHg 90%
    08:00 +16°C° 0 mm 6 mps 749 mmHg 90%
    09:00 +16°C° 0 mm 6 mps 749 mmHg 89%
    10:00 +17°C° 0.1 mm 6 mps 748 mmHg 86%
    11:00 +17°C° 0.1 mm 6 mps 748 mmHg 84%
    12:00 +19°C° 0.1 mm 6 mps 747 mmHg 81%
    13:00 +17°C° 1.1 mm 6 mps 747 mmHg 85%
    14:00 +17°C° 1.1 mm 5 mps 746 mmHg 88%
    15:00 +16°C° 1.1 mm 5 mps 746 mmHg 91%
    16:00 +16°C° 0.6 mm 5 mps 745 mmHg 90%
    17:00 +15°C° 0.6 mm 4 mps 745 mmHg 89%
    18:00 +15°C° 0.6 mm 4 mps 745 mmHg 88%
    19:00 +14°C° 0 mm 4 mps 745 mmHg 88%
    20:00 +14°C° 0 mm 4 mps 746 mmHg 89%
    21:00 +13°C° 0 mm 4 mps 746 mmHg 89%
    22:00 +13°C° 0 mm 5 mps 746 mmHg 89%
    23:00 +12°C° 0 mm 5 mps 746 mmHg 88%
    Show more